カタログに戻る

STARLINK-4206

運用中通信VLEO
NORAD 52847·PAYLOAD·🇺🇸 United States

打ち上げ Jun 17, 2022 から Cape Canaveral Space Force Station

Loading…

次のパス (今後24時間)

TLE

最新Source: CelesTrak SupGP

元期: Sep 14, 2026, 21:33 UTC

1 52847C 22062T   26257.89840278  .00050970  00000+0  15058-2 0  2574
2 52847  53.1579 255.6614 0001180  92.3718 300.6189 15.34368190    15

AllMySatでSTARLINK-4206をリアルタイム追跡

Download on the App Store